GW5534 Weather Reports


time (UTC)temp
F
wind
direction
speed
knots
gust
knots
rain 1hr
in
rain 24hr
in
rain mn
in
humidity
%
barometer
mb
20260505011506 61 342 10.4 25.2 0.00 0.00 0.00 32 1006.7
20260505010618 62 340 9.6 20.0 0.00 0.00 0.00 31 1006.7
20260505005503 63 339 10.4 19.1 0.00 0.00 0.00 30 1006.6
20260505004503 64 339 9.6 22.6 0.00 0.00 0.00 29 1006.4
20260505003503 65 341 10.4 18.2 0.00 0.00 0.00 27 1006.1
20260505002503 66 342 9.6 17.4 0.00 0.00 0.00 27 1006.0
20260505001503 67 342 10.4 18.2 0.00 0.00 0.00 27 1005.7
20260505000503 68 346 9.6 18.2 0.00 0.00 0.00 27 1005.6
20260504235503 68 343 8.7 16.5 0.00 0.00 0.00 27 1005.4
20260504234503 69 346 8.7 19.1 0.00 0.00 0.00 26 1005.4
20260504233618 69 340 9.6 17.4 0.00 0.00 0.00 26 1005.4
20260504232503 70 334 9.6 16.5 0.00 0.00 0.00 25 1005.2
20260504231502 71 339 8.7 15.6 0.00 0.00 0.00 25 1005.0
20260504230503 72 345 7.8 16.5 0.00 0.00 0.00 25 1004.9
20260504225618 72 338 9.6 18.2 0.00 0.00 0.00 25 1004.5
20260504224618 73 333 9.6 17.4 0.00 0.00 0.00 25 1004.2
20260504223503 73 330 10.4 20.0 0.00 0.00 0.00 25 1004.1
20260504222618 74 336 9.6 24.3 0.00 0.00 0.00 24 1003.8
20260504221504 74 346 9.6 18.2 0.00 0.00 0.00 25 1003.6
20260504220502 76 348 7.8 20.9 0.00 0.00 0.00 25 1003.4
20260504215503 76 336 10.4 15.6 0.00 0.00 0.00 24 1003.3
20260504214618 76 335 8.7 20.0 0.00 0.00 0.00 24 1003.2
20260504213503 76 335 8.7 19.1 0.00 0.00 0.00 25 1003.2
20260504212503 77 346 7.0 13.0 0.00 0.00 0.00 25 1003.1
20260504211506 78 332 7.0 14.8 0.00 0.00 0.00 25 1003.0
20260504210503 78 329 5.2 13.0 0.00 0.00 0.00 26 1002.9
20260504205503 78 343 7.0 13.9 0.00 0.00 0.00 27 1002.9
20260504204504 78 343 7.0 14.8 0.00 0.00 0.00 28 1002.9
20260504203503 78 335 7.0 13.9 0.00 0.00 0.00 27 1002.8
20260504202503 78 330 7.0 14.8 0.00 0.00 0.00 28 1002.8
20260504201503 78 320 5.2 13.0 0.00 0.00 0.00 29 1002.7
20260504200506 78 326 7.0 13.9 0.00 0.00 0.00 28 1002.7
20260504195503 79 327 7.0 16.5 0.00 0.00 0.00 28 1002.7
20260504194503 79 330 7.0 13.9 0.00 0.00 0.00 29 1002.5
20260504193503 79 330 7.8 16.5 0.00 0.00 0.00 28 1002.5
20260504192503 80 324 6.1 16.5 0.00 0.00 0.00 28 1002.5
20260504191503 80 328 7.0 18.2 0.00 0.00 0.00 27 1002.4
20260504190503 80 331 7.8 14.8 0.00 0.00 0.00 27 1002.3
20260504185503 80 335 7.0 14.8 0.00 0.00 0.00 27 1002.2
20260504184618 80 321 7.8 15.6 0.00 0.00 0.00 25 1002.1
20260504183618 81 323 6.1 13.0 0.00 0.00 0.00 26 1002.1
20260504182503 81 320 5.2 13.9 0.00 0.00 0.00 25 1002.0
20260504181503 81 323 6.1 13.9 0.00 0.00 0.00 25 1001.9
20260504180503 81 308 5.2 12.2 0.00 0.00 0.00 26 1002.0
20260504175503 80 289 4.3 14.8 0.00 0.00 0.00 25 1002.0
20260504174503 80 279 4.3 13.0 0.00 0.00 0.00 26 1002.2
20260504173503 80 313 5.2 12.2 0.00 0.00 0.00 27 1002.3
20260504172503 79 284 5.2 13.9 0.00 0.00 0.00 26 1002.3
20260504171618 79 300 5.2 12.2 0.00 0.00 0.00 25 1002.4
20260504170503 79 286 3.5 11.3 0.00 0.00 0.00 29 1002.4
20260504150618 69 255 1.7 6.1 0.00 0.00 0.00 39 1002.3
20260504140504 63 317 2.6 6.1 0.00 0.00 0.00 45 1002.7
20260504130503 56 340 0.9 3.5 0.00 0.00 0.00 62 1002.7
20260504110618 48 147 0.0 0.0 0.00 0.00 0.00 77 1002.6
20260504081618 49 154 0.0 0.0 0.00 0.00 0.00 71 1004.0
20260504080503 49 163 0.0 0.0 0.00 0.00 0.00 73 1004.1
20260504050503 53 163 0.0 0.0 0.00 0.00 0.00 66 1006.6
20260504045503 53 163 0.0 0.0 0.00 0.00 0.00 67 1006.7
20260504044504 54 163 0.0 0.0 0.00 0.00 0.00 64 1006.8
20260504043617 54 163 0.0 0.0 0.00 0.00 0.00 63 1006.8
20260504042503 55 163 0.0 0.0 0.00 0.00 0.00 62 1006.9
20260504041503 56 163 0.0 0.0 0.00 0.00 0.00 60 1007.1
20260504040503 56 163 0.0 0.0 0.00 0.00 0.00 59 1007.1
20260504035503 57 163 0.0 0.0 0.00 0.00 0.00 58 1007.3
20260504034503 57 163 0.0 0.0 0.00 0.00 0.00 60 1007.4
20260504033503 57 163 0.0 0.0 0.00 0.00 0.00 58 1007.5
20260504032504 58 163 0.0 0.0 0.00 0.00 0.00 58 1007.6
20260504031618 58 163 0.0 0.0 0.00 0.00 0.00 57 1007.5
20260504030503 59 163 0.0 0.0 0.00 0.00 0.00 55 1007.8
20260504025503 59 163 0.0 0.0 0.00 0.00 0.00 54 1007.8
20260504024503 60 163 0.0 0.0 0.00 0.00 0.00 49 1007.8
20260504023503 61 163 0.0 0.0 0.00 0.00 0.00 48 1007.8
20260504022618 61 163 0.0 0.0 0.00 0.00 0.00 45 1008.0
20260504021503 62 163 0.0 0.0 0.00 0.00 0.00 43 1008.0
20260504020504 63 163 0.0 0.0 0.00 0.00 0.00 41 1008.0
20260504015503 65 163 0.0 0.0 0.00 0.00 0.00 39 1008.0
20260504014503 66 163 0.0 0.0 0.00 0.00 0.00 35 1008.1
20260504013503 67 163 0.0 0.9 0.00 0.00 0.00 34 1008.1
20260504012506 69 164 0.0 0.9 0.00 0.00 0.00 32 1008.1